Notices

What's New in latest Release from April 7th, 2021:

- Updated Glossary, including Speed of Maximum Gust, and Total Hourly Precipitation

- Updated national and regional climate services offices contacts and prices information

- Addition of station inventory lists for 1981-2010, 1971-2000, and 1961-1990 Normals.

If you haven't already, please take our survey and provide feedback about our website: https://eccc.sondage-survey.ca/f/LanguageSelection.aspx?s=442ca660-fcf1-47c0-95a9-59707d6fd709

Hourly Data Report for May 03, 2020

MIRAMICHI RCS
NEW BRUNSWICK
Current Station Operator: ECCC - MSC

47°00'34.000" N
65°27'54.000" W
33.00 m
8100989
71744
ACQ

Download Data

Hourly Data (May 2020)
Hourly Data Report for May 3, 2020
TIME
LST
Temp Definition
°C
Dew Point Definition
°C
Rel Hum Definition
%
Precip. Amount Definition
mm

Wind Dir Definition
10's deg

Wind Spd Definition
km/h
Visibility Definition
km
Stn Press Definition
kPa
Hmdx Definition


Wind Chill Definition


Weather Definition


00:00 4.2 -1.2 68 LegendMM 25 3   100.29     LegendNANA
01:00 3.0 -1.6 72 LegendMM 24 11   100.32     LegendNANA
02:00 2.3 -1.8 74 LegendMM 28 6   100.33     LegendNANA
03:00 1.1 -1.8 81 LegendMM 27 6   100.33     LegendNANA
04:00 0.8 -2.5 79 LegendMM 26 6   100.38     LegendNANA
05:00 0.0 -2.4 83 LegendMM 26 6   100.42   -2 LegendNANA
06:00 0.8 -1.5 84 LegendMM 25 5   100.49     LegendNANA
07:00 3.5 -1.1 71 LegendMM 26 4   100.51     LegendNANA
08:00 7.4 -0.4 57 LegendMM 0 1   100.56     LegendNANA
09:00 10.5 0.3 49 LegendMM 19 6   100.56     LegendNANA
10:00 12.3 -1.4 39 LegendMM 22 11   100.52     LegendNANA
11:00 13.5 0.1 40 LegendMM 19 9   100.44     LegendNANA
12:00 15.3 2.9 43 LegendMM 22 17   100.36     LegendNANA
13:00 16.1 -0.2 33 LegendMM 21 6   100.29     LegendNANA
14:00 17.1 -0.1 31 LegendMM 29 6   100.22     LegendNANA
15:00 16.3 -0.4 32 LegendMM 6 9   100.13     LegendNANA
16:00 14.9 4.1 48 LegendMM 9 24   100.12     LegendNANA
17:00 13.8 0.0 39 LegendMM 10 23   100.12     LegendNANA
18:00 12.5 0.6 44 LegendMM 11 18   100.13     LegendNANA
19:00 11.8 1.7 50 LegendMM 13 3   100.17     LegendNANA
20:00 10.6 1.8 55 LegendMM 13 11   100.17     LegendNANA
21:00 9.7 1.5 57 LegendMM 12 10   100.20     LegendNANA
22:00 8.8 1.8 61 LegendMM 10 11   100.17     LegendNANA
23:00 8.4 1.8 63 LegendMM 9 8   100.14     LegendNANA

Notes on Data Quality.

Legend

  • E = Estimated
  • M = Missing
  • NA = Not Available*
  • [empty] = Indicates an unobserved value
Date modified: